Starlink 32033

operational
NORAD ID: 60144 Int'l Des: 2024-120 Owner: SPXS Country: US Constellation: starlink
LEOCIRCULAR

Starlink 32033について

説明を読み込み中...

リアルタイム位置

3D地球を読み込み中...

次回通過

高度履歴

Altitude vs Time

uPlot chart will show altitude changes over time

軌道要素

1 60144U 24120K 25351.68818582 .00000330 00000-0 23279-4 0 9999
2 60144 53.1619 340.6531 0001532 91.9698 268.1479 15.30194127 83828
Epoch: Dec 17, 2025 • Age: 18 hours

現在のステータス

高度 494.5 km
速度 7.62 km/s
衛星直下点 -52.50°S, 9.04°E
打ち上げ日 Jun 27, 2024
運用期間 1.4 years
タイプ internet

技術仕様

分類 Payload
質量 730.00 kg
乾燥質量 700.00 kg
総質量 730.00 kg
長さ 0.30 m
直径 4.10 m
スパン 29.00 m
形状 Box + pan
製造者 SPXS
バスタイプ Starlink V2M
フェーズステータス In Orbit
所有者/国 SPXS/US

大規模コンステレーション

Loading constellations...